Flag for Canada Weather past 2 weeks in Labrador City, Newfoundland and Labrador, Canada

Now
28 °F

Light snow. Overcast.


Feels Like: 17 °F
Forecast: 26 / 38 °F
Wind: 14 mph from South

Location: Wabush Lake

Current Time: Apr 21, 2015 at 7:29:48 AM

Latest Report: Apr 21, 2015 at 7:00 AM


Visibility: 10 mi

Pressure: 30.00 "Hg

Humidity: 80%

Dew point: 23 °F

Location of Labrador CityLocation

Historic Weather in Labrador City — Graph

°F

Labrador City temperature yesterday

Maximum temperature yesterday: 37 °F (at 5:00 PM)
Minimum temperature yesterday: 3 °F (at 4:54 AM)
Average temperature yesterday: 22 °F

Past Weeks' High & Low Weather Summary

 TemperatureHumidityPressure
High52 °F (Apr 13, 4:00 PM)100% (Apr 16, 6:03 PM)30.60 "Hg (Apr 16, 6:03 PM)
Low-20 °F (Apr 9, 7:00 AM)29% (Apr 12, 5:00 PM)29.23 "Hg (Apr 14, 8:00 AM)
Average19 °F69%29.99 "Hg
* Reported Apr 6 6:00 AM — Apr 21 6:00 AM, Labrador City, Weather by CustomWeather, © 2015

Note: Actual official high and low records may vary slightly from our data, if they occured in-between our weather recording intervals... More about our weather records

Advertising

Labrador City weather history for previous 24 hours

 ConditionsComfort  
Time TempWeatherWind HumidityBarometerVisibility
6:00 AM
Tue, Apr 21
28 °FOvercast.12 mph80%30.02 "Hg15 mi
5:50 AM27 °FOvercast.13 mph86%30.02 "Hg9 mi
5:01 AM27 °FLight snow. Overcast.15 mph93%30.04 "Hg3 mi
4:04 AM28 °FLight snow. Overcast.20 mph86%30.07 "Hg2 mi
3:00 AM30 °FOvercast.15 mph69%30.08 "Hg9 mi
2:00 AM30 °FMostly cloudy.12 mph64%30.09 "Hg9 mi
1:00 AM30 °FMostly cloudy.14 mph59%30.11 "Hg9 mi
12:00 AM32 °FPassing clouds.16 mph55%30.13 "Hg9 mi
11:00 PM
Mon, Apr 20
32 °FPassing clouds.12 mph60%30.15 "Hg9 mi
10:00 PM34 °FMore clouds than sun.10 mph51%30.17 "Hg15 mi
9:00 PM34 °FMore clouds than sun.8 mph56%30.19 "Hg15 mi
8:00 PM36 °FPartly sunny.5 mph52%30.19 "Hg15 mi
7:00 PM36 °FPartly sunny.12 mph48%30.21 "Hg15 mi
6:00 PM37 °FScattered clouds.12 mph41%30.23 "Hg15 mi
5:00 PM37 °FScattered clouds.16 mph45%30.26 "Hg15 mi
4:00 PM36 °FPartly sunny.12 mph48%30.28 "Hg15 mi
3:00 PM34 °FPartly sunny.7 mph48%30.29 "Hg15 mi
2:00 PM32 °FPartly sunny.10 mph47%30.32 "Hg15 mi
1:00 PM30 °FPassing clouds.7 mph51%30.34 "Hg15 mi
12:00 PM27 °FPassing clouds.8 mph69%30.37 "Hg15 mi
11:00 AM23 °FPassing clouds.5 mph74%30.38 "Hg15 mi
10:00 AM19 °FOvercast.2 mph73%30.41 "Hg15 mi
9:00 AM16 °FOvercast.3 mph79%30.42 "Hg15 mi
8:00 AM14 °FOvercast.No wind79%30.42 "Hg15 mi
7:00 AM12 °FOvercast.2 mph85%30.41 "Hg15 mi
Weather by CustomWeather, © 2015

See weather overviewHow to use our weather pages